Xtreme Racing in GPRO
 
HomeHome  PortalPortal  CalendarCalendar  FAQFAQ  SearchSearch  MemberlistMemberlist  UsergroupsUsergroups  RegisterRegister  Log inLog in  

Share | 
 

 Season 25 Race 8 (Magny Cours)

Go down 
AuthorMessage
mmarian



Posts : 33
Points : 67
Reputation : 0
Join date : 2011-02-18

PostSubject: Season 25 Race 8 (Magny Cours)   Wed May 18, 2011 1:38 am

Previous race: Magny Cours GP (France)

Power:
Handling:
Acceleration:
Best qualifying lap
Tomasz Wypych: 1:12.772s (Season 16)
Track record
Zdenek Hladik: 1:13.215s (Season 25)
Weather forecast (for the previous race)
Practice / Qualify 1 Qualify 2 / Race start

Temp: 32°C
Humidity: 9%
Temp: 27°C
Humidity: 5%
Race forecast
Start - 0h30m 0h30m - 1h
Temp: 27°-30°
Humidity: 4%-14%
Rain probability: 0% Temp: 24°-28°
Humidity: 4%-11%
Rain probability: 0%
1h - 1h30m 1h30m - 2h
Temp: 23°-27°
Humidity: 5%-13%
Rain probability: 0% Temp: 23°-28°
Humidity: 6%-16%
Rain probability: 0%
Race settings and strategy
Risks used
Overtake Defend Clear Malfunct
40 50 35 0

Setup used
FWing RWing Eng Bra Gear Susp
600 600 600 400 600 700

Start fuel: 82 liters

Pit Pitstop reason Tyres condition
Fuel left Refilled to Pit time
Stop 1
(Lap 25) No more fuel was left 35% 0% 85 liters 25.737s
Stop 2
(Lap 50) No more fuel was left 35% 2% 85 liters 28.956s

Tyres condition after finish: 43%

Fuel left in the car after finish: 13 liters

Lap information
Lap Lap time Pos Tyres Weather Temp Hum Events
0 - 12 Hard Partially Cloudy 27° 5% -
1 1:31.181 9 Hard Partially Cloudy 27° 5% -
2 1:22.860 9 Hard Partially Cloudy 27° 5% -
3 1:22.559 9 Hard Partially Cloudy 27° 5% -
4 1:22.599 10 Hard Partially Cloudy 27° 5% -
5 1:22.363 9 Hard Partially Cloudy 27° 5% -
6 1:22.358 9 Hard Partially Cloudy 27° 5% -
7 1:22.501 9 Hard Partially Cloudy 27° 5% -
8 1:22.077 9 Hard Partially Cloudy 27° 5% -
9 1:22.172 8 Hard Partially Cloudy 27° 5% -
10 1:22.006 8 Hard Partially Cloudy 27° 5% -
11 1:21.876 8 Hard Partially Cloudy 27° 5% -
12 1:21.796 8 Hard Partially Cloudy 27° 4% -
13 1:22.057 8 Hard Partially Cloudy 27° 4% -
14 1:21.768 8 Hard Partially Cloudy 27° 4% -
15 1:21.661 8 Hard Partially Cloudy 28° 4% -
16 1:21.858 7 Hard Partially Cloudy 28° 4% -
17 1:24.249 4 Hard Partially Cloudy 28° 4% -
18 1:21.447 3 Hard Partially Cloudy 28° 4% -
19 1:21.660 3 Hard Partially Cloudy 29° 4% -
20 1:21.483 3 Hard Partially Cloudy 30° 4% -
21 1:21.266 2 Hard Partially Cloudy 30° 4% -
22 1:21.390 2 Hard Partially Cloudy 30° 4% -
23 1:20.987 2 Hard Partially Cloudy 30° 4% -
24 1:21.261 2 Hard Partially Cloudy 30° 4% -
25 1:30.136 1 Hard Partially Cloudy 30° 4% Pit
26 1:58.035 9 Hard Partially Cloudy 30° 4% -
27 1:22.952 9 Hard Partially Cloudy 30° 4% -
28 1:22.672 9 Hard Partially Cloudy 29° 4% -
29 1:22.618 8 Hard Partially Cloudy 28° 4% -
30 1:22.708 7 Hard Partially Cloudy 28° 4% -
31 1:22.379 6 Hard Partially Cloudy 28° 4% -
32 1:22.497 5 Hard Partially Cloudy 27° 4% -
33 1:22.177 4 Hard Partially Cloudy 27° 4% -
34 1:28.337 5 Hard Partially Cloudy 27° 4% Driver mistake
35 1:22.169 4 Hard Cloudy 27° 4% -
36 1:22.357 4 Hard Cloudy 26° 4% -
37 1:22.041 3 Hard Cloudy 26° 4% -
38 1:22.420 3 Hard Cloudy 26° 4% -
39 1:22.026 3 Hard Cloudy 25° 4% -
40 1:22.222 3 Hard Cloudy 25° 4% -
41 1:21.966 3 Hard Cloudy 25° 4% -
42 1:22.299 2 Hard Cloudy 25° 4% -
43 1:22.167 2 Hard Cloudy 25° 4% -
44 1:22.061 2 Hard Cloudy 25° 4% -
45 1:21.805 2 Hard Cloudy 26° 4% -
46 1:21.777 2 Hard Cloudy 27° 4% -
47 1:21.785 2 Hard Cloudy 27° 4% -
48 1:21.788 2 Hard Cloudy 27° 5% -
49 1:21.666 2 Hard Cloudy 27° 5% -
50 1:30.394 3 Hard Cloudy 27° 5% Pit
51 2:01.467 7 Hard Cloudy 27° 5% -
52 1:23.218 6 Hard Cloudy 27° 5% -
53 1:23.105 6 Hard Cloudy 27° 5% -
54 1:22.779 5 Hard Cloudy 27° 5% -
55 1:22.467 6 Hard Cloudy 27° 5% -
56 1:22.523 6 Hard Very Cloudy 27° 5% -
57 1:22.110 5 Hard Very Cloudy 27° 5% -
58 1:22.305 5 Hard Very Cloudy 27° 5% -
59 1:22.560 3 Hard Very Cloudy 27° 5% -
60 1:22.437 4 Hard Very Cloudy 27° 5% -
61 1:22.072 4 Hard Very Cloudy 27° 5% -
62 1:22.510 4 Hard Very Cloudy 27° 5% -
63 1:22.361 4 Hard Very Cloudy 27° 5% -
64 1:21.981 3 Hard Very Cloudy 27° 5% -
65 1:22.280 3 Hard Very Cloudy 27° 5% -
66 1:22.208 3 Hard Very Cloudy 27° 5% -
67 1:22.123 3 Hard Very Cloudy 27° 5% -
68 1:21.758 3 Hard Very Cloudy 27° 6% -
69 1:21.688 3 Hard Very Cloudy 27° 6% -
70 1:22.025 3 Hard Very Cloudy 27° 6% -
71 1:21.657 3 Hard Very Cloudy 27° 6% -
72 1:21.673 3 Hard Very Cloudy 27° 6% -
Back to top Go down
View user profile
PaulC



Posts : 94
Points : 187
Reputation : 0
Join date : 2010-08-01
Age : 50
Location : New Hampshire

PostSubject: Re: Season 25 Race 8 (Magny Cours)   Wed May 18, 2011 2:56 pm

Practice / Qualify 1 Qualify 2 / Race start
Sunny
Temp: 32°C
Humidity: 9% Partially Cloudy
Temp: 27°C
Humidity: 5%
Race forecast
Start - 0h30m 0h30m - 1h
Temp: 27°-30°
Humidity: 4%-14%
Rain probability: 0% Temp: 24°-28°
Humidity: 4%-11%
Rain probability: 0%
1h - 1h30m 1h30m - 2h
Temp: 23°-27°
Humidity: 5%-13%
Rain probability: 0% Temp: 23°-28°
Humidity: 6%-16%
Rain probability: 0%
Race settings and strategy
Risks used
Overtake Defend Clear Malfunct
30 0 20 0

Setup used
FWing RWing Eng Bra Gear Susp
594 494 768 287 442 689

Start fuel: 72 liters
Pit Pitstop reason Tyres condition
Fuel left Refilled to Pit time
Stop 1
(Lap 23) The tyres could not do any more laps 4% 3% 71 liters 23.632s
Stop 2
(Lap 47) No more fuel was left 1% 1% 71 liters 24.126s
Stop 3
(Lap 71) No more fuel was left 1% 1% 58 liters 30.098s

Tyres condition after finish: 96%

Fuel left in the car after finish: 55 liters

Lap information
Lap Lap time Pos Tyres Weather Temp Hum Events
0 - 1 Soft Partially Cloudy 27° 5% -
1 1:25.728 1 Soft Partially Cloudy 27° 5% -
2 1:20.543 1 Soft Partially Cloudy 27° 5% -
3 1:20.346 1 Soft Partially Cloudy 27° 5% -
4 1:19.916 1 Soft Partially Cloudy 27° 5% -
5 1:19.918 1 Soft Partially Cloudy 27° 5% -
6 1:19.924 1 Soft Partially Cloudy 27° 5% -
7 1:19.830 1 Soft Partially Cloudy 27° 5% -
8 1:19.743 1 Soft Partially Cloudy 27° 5% -
9 1:19.749 1 Soft Partially Cloudy 27° 5% -
10 1:19.782 1 Soft Partially Cloudy 27° 5% -
11 1:19.708 1 Soft Partially Cloudy 27° 5% -
12 1:19.714 1 Soft Partially Cloudy 27° 4% -
13 1:19.610 1 Soft Partially Cloudy 27° 4% -
14 1:19.522 1 Soft Partially Cloudy 27° 4% -
15 1:19.427 1 Soft Partially Cloudy 28° 4% -
16 1:19.466 1 Soft Partially Cloudy 28° 4% -
17 1:19.408 1 Soft Partially Cloudy 28° 4% -
18 1:19.404 1 Soft Partially Cloudy 28° 4% -
19 1:19.212 1 Soft Partially Cloudy 29° 4% -
20 1:19.501 1 Soft Partially Cloudy 30° 4% -
21 1:20.129 1 Soft Partially Cloudy 30° 4% -
22 1:21.012 2 Soft Partially Cloudy 30° 4% -
23 1:30.970 5 Soft Partially Cloudy 30° 4% Pit
24 1:53.333 9 Soft Partially Cloudy 30° 4% -
25 1:20.467 5 Soft Partially Cloudy 30° 4% -
26 1:20.021 5 Soft Partially Cloudy 30° 4% -
27 1:19.782 3 Soft Partially Cloudy 30° 4% -
28 1:19.771 3 Soft Partially Cloudy 29° 4% -
29 1:19.625 3 Soft Partially Cloudy 28° 4% -
30 1:19.203 3 Soft Partially Cloudy 28° 4% -
31 1:20.041 3 Soft Partially Cloudy 28° 4% -
32 1:19.434 3 Soft Partially Cloudy 27° 4% -
33 1:20.038 3 Soft Partially Cloudy 27° 4% -
34 1:19.524 3 Soft Partially Cloudy 27° 4% -
35 1:19.422 3 Soft Cloudy 27° 4% -
36 1:19.689 3 Soft Cloudy 26° 4% -
37 1:19.698 3 Soft Cloudy 26° 4% -
38 1:19.679 3 Soft Cloudy 26° 4% -
39 1:20.020 3 Soft Cloudy 25° 4% -
40 1:24.736 4 Soft Cloudy 25° 4% Driver mistake
41 1:19.606 4 Soft Cloudy 25° 4% -
42 1:19.518 4 Soft Cloudy 25° 4% -
43 1:19.693 4 Soft Cloudy 25° 4% -
44 1:20.341 4 Soft Cloudy 25° 4% -
45 1:21.115 4 Soft Cloudy 26° 4% -
46 1:21.850 5 Soft Cloudy 27° 4% -
47 1:31.985 5 Soft Cloudy 27° 4% Pit
48 1:53.971 7 Soft Cloudy 27° 5% -
49 1:20.568 6 Soft Cloudy 27° 5% -
50 1:20.170 5 Soft Cloudy 27° 5% -
51 1:19.990 5 Soft Cloudy 27° 5% -
52 1:19.829 5 Soft Cloudy 27° 5% -
53 1:19.850 5 Soft Cloudy 27° 5% -
54 1:19.803 5 Soft Cloudy 27° 5% -
55 1:19.688 5 Soft Cloudy 27° 5% -
56 1:19.710 5 Soft Very Cloudy 27° 5% -
57 1:19.699 5 Soft Very Cloudy 27° 5% -
58 1:19.663 5 Soft Very Cloudy 27° 5% -
59 1:19.585 5 Soft Very Cloudy 27° 5% -
60 1:19.529 5 Soft Very Cloudy 27° 5% -
61 1:19.397 5 Soft Very Cloudy 27° 5% -
62 1:19.468 5 Soft Very Cloudy 27° 5% -
63 1:19.326 5 Soft Very Cloudy 27° 5% -
64 1:19.379 5 Soft Very Cloudy 27° 5% -
65 1:19.297 5 Soft Very Cloudy 27° 5% -
66 1:19.190 5 Soft Very Cloudy 27° 5% -
67 1:19.367 5 Soft Very Cloudy 27° 5% -
68 1:20.095 5 Soft Very Cloudy 27° 6% -
69 1:20.872 5 Soft Very Cloudy 27° 6% -
70 1:21.729 5 Soft Very Cloudy 27° 6% -
71 1:31.724 6 Soft Very Cloudy 27° 6% Pit
72 1:59.675 7 Soft Very Cloudy 27° 6% -
Back to top Go down
View user profile
KlāvsPocius



Posts : 10
Points : 12
Reputation : 0
Join date : 2011-02-20
Age : 23
Location : Latvia

PostSubject: Re: Season 25 Race 8 (Magny Cours)   Wed May 18, 2011 6:02 pm

Lap Lap time Pos Tyres Weather Temp Hum Events
0 - 3 Soft Partially Cloudy 27° 5% -
1 1:26.632 4 Soft Partially Cloudy 27° 5% -
2 1:20.502 4 Soft Partially Cloudy 27° 5% -
3 1:19.888 4 Soft Partially Cloudy 27° 5% -
4 1:20.195 4 Soft Partially Cloudy 27° 5% -
5 1:20.285 4 Soft Partially Cloudy 27° 5% -
6 1:19.851 4 Soft Partially Cloudy 27° 5% -
7 1:19.783 4 Soft Partially Cloudy 27° 5% -
8 1:20.203 4 Soft Partially Cloudy 27° 5% -
9 1:19.556 4 Soft Partially Cloudy 27° 5% -
10 1:19.838 4 Soft Partially Cloudy 27° 5% -
11 1:19.843 4 Soft Partially Cloudy 27° 5% -
12 1:19.716 4 Soft Partially Cloudy 27° 4% -
13 1:19.903 4 Soft Partially Cloudy 27° 4% -
14 1:19.832 4 Soft Partially Cloudy 27° 4% -
15 1:19.290 4 Soft Partially Cloudy 28° 4% -
16 1:19.626 4 Soft Partially Cloudy 28° 4% -
17 1:27.773 7 Soft Partially Cloudy 28° 4% Pit
18 1:52.826 14 Soft Partially Cloudy 28° 4% -
19 1:20.349 14 Soft Partially Cloudy 29° 4% -
20 1:19.945 14 Soft Partially Cloudy 30° 4% -
21 1:19.413 14 Soft Partially Cloudy 30° 4% -
22 1:19.687 14 Soft Partially Cloudy 30° 4% -
23 1:19.785 10 Soft Partially Cloudy 30° 4% -
24 1:19.463 6 Soft Partially Cloudy 30° 4% -
25 1:19.224 6 Soft Partially Cloudy 30° 4% -
26 1:20.654 5 Soft Partially Cloudy 30° 4% -
27 1:19.177 4 Soft Partially Cloudy 30° 4% -
28 1:19.209 3 Soft Partially Cloudy 29° 4% -
29 1:19.193 3 Soft Partially Cloudy 28° 4% -
30 1:19.491 3 Soft Partially Cloudy 28° 4% -
31 1:19.297 3 Soft Partially Cloudy 28° 4% -
32 1:19.445 3 Soft Partially Cloudy 27° 4% -
33 1:19.085 3 Soft Partially Cloudy 27° 4% -
34 1:19.225 3 Soft Partially Cloudy 27° 4% -
35 1:19.193 3 Soft Cloudy 27° 4% -
36 1:29.120 3 Soft Cloudy 26° 4% Pit
37 1:57.584 6 Soft Cloudy 26° 4% -
38 1:20.651 6 Soft Cloudy 26° 4% -
39 1:20.346 6 Soft Cloudy 25° 4% -
40 1:19.928 6 Soft Cloudy 25° 4% -
41 1:19.958 6 Soft Cloudy 25° 4% -
42 1:19.714 6 Soft Cloudy 25° 4% -
43 1:19.988 6 Soft Cloudy 25° 4% -
44 1:19.858 6 Soft Cloudy 25° 4% -
45 1:19.683 6 Soft Cloudy 26° 4% -
46 1:19.464 6 Soft Cloudy 27° 4% -
47 1:19.338 5 Soft Cloudy 27° 4% -
48 1:19.254 4 Soft Cloudy 27° 5% -
49 1:19.547 4 Soft Cloudy 27° 5% -
50 1:19.467 4 Soft Cloudy 27° 5% -
51 1:19.443 4 Soft Cloudy 27° 5% -
52 1:19.198 4 Soft Cloudy 27° 5% -
53 1:19.260 4 Soft Cloudy 27° 5% -
54 1:19.259 4 Soft Cloudy 27° 5% -
55 1:28.654 4 Soft Cloudy 27° 5% Pit
56 1:53.539 6 Soft Very Cloudy 27° 5% -
57 1:20.643 6 Soft Very Cloudy 27° 5% -
58 1:19.879 6 Soft Very Cloudy 27° 5% -
59 1:20.701 6 Soft Very Cloudy 27° 5% -
60 1:20.363 6 Soft Very Cloudy 27° 5% -
61 1:20.279 6 Soft Very Cloudy 27° 5% -
62 1:19.896 6 Soft Very Cloudy 27° 5% -
63 1:20.188 6 Soft Very Cloudy 27° 5% -
64 1:20.326 6 Soft Very Cloudy 27° 5% -
65 1:19.942 6 Soft Very Cloudy 27° 5% -
66 1:20.652 6 Soft Very Cloudy 27° 5% -
67 1:20.683 6 Soft Very Cloudy 27° 5% -
68 1:19.206 5 Soft Very Cloudy 27° 6% -
69 1:19.143 5 Soft Very Cloudy 27° 6% -
70 1:19.093 5 Soft Very Cloudy 27° 6% -
71 1:18.846 4 Soft Very Cloudy 27° 6% -
72 1:19.203 4 Soft Very Cloudy 27° 6% -

Risks used
Overtake Defend Clear Malfunct
15 0 50 0

Setup used
FWing RWing Eng Bra Gear Susp
643 613 736 297 436 724

Start fuel: 50 liters

Pit Pitstop reason Tyres condition
Fuel left Refilled to Pit time
Stop 1
(Lap 17) No more fuel was left 24% 1% 55 liters 23.497s
Stop 2
(Lap 36) No more fuel was left 13% 1% 55 liters 27.988s
Stop 3
(Lap 55) No more fuel was left 16% 1% 55 liters 23.717s

Tyres condition after finish: 24%

Fuel left in the car after finish: 6 liters
Back to top Go down
View user profile
Sponsored content




PostSubject: Re: Season 25 Race 8 (Magny Cours)   

Back to top Go down
 
Season 25 Race 8 (Magny Cours)
Back to top 
Page 1 of 1
 Similar topics
-
» RuPaul's Drag Race
» Race is Artificial
» "Pride" in your culture/race/whatever
» The Amazing Race 15 - Meet The Cast
» Bill O'Reilly on the black / race issue.

Permissions in this forum:You cannot reply to topics in this forum
Xtreme Racing :: Season 25-
Jump to: